FW1657 Weather Reports


Display with metric or nautical units.
time (UTC)temp
F
wind
direction
speed
MPH
gust
MPH
rain 1hr
in
rain 24hr
in
rain mn
in
humidity
%
barometer
mb
20260903193035 68 102 4.0 8.0 0.00 0.00 0.00 82 1021.2
20260903191534 69 94 5.0 9.0 0.00 0.00 0.00 80 1021.2
20260903190040 69 104 7.0 11.0 0.00 0.00 0.00 79 1021.2
20260903184533 70 101 8.0 12.0 0.00 0.00 0.00 77 1021.1
20260903183033 71 137 8.0 16.0 0.00 0.00 0.00 75 1021.2
20260903181532 71 150 11.0 16.0 0.00 0.00 0.00 73 1021.2
20260903180049 71 110 6.0 13.0 0.00 0.00 0.00 71 1020.9
20260903174530 71 105 7.0 13.0 0.00 0.00 0.00 70 1020.8
20260903173033 72 106 5.0 11.0 0.00 0.00 0.00 69 1020.6
20260903171629 73 99 6.0 16.0 0.00 0.00 0.00 68 1020.7
20260903170041 73 98 9.0 17.0 0.00 0.00 0.00 67 1020.6
20260903164533 73 117 11.0 19.0 0.00 0.00 0.00 67 1020.6
20260903163027 73 110 8.0 18.0 0.00 0.00 0.00 66 1020.5
20260903161529 73 98 10.0 15.0 0.00 0.00 0.00 65 1020.5
20260903160037 73 96 9.0 14.0 0.00 0.00 0.00 65 1020.5
20260903154525 74 102 11.0 16.0 0.00 0.00 0.00 63 1020.5
20260903153024 75 134 10.0 20.0 0.00 0.00 0.00 62 1020.4
20260903151520 75 101 12.0 17.0 0.00 0.00 0.00 62 1020.6
20260903150019 74 110 13.0 19.0 0.00 0.00 0.00 62 1020.8
20260903144521 74 103 12.0 20.0 0.00 0.00 0.00 62 1020.9
20260903143016 75 102 10.0 17.0 0.00 0.00 0.00 62 1020.8
20260903141521 74 93 12.0 20.0 0.00 0.00 0.00 62 1020.6
20260903140011 73 106 13.0 23.0 0.00 0.00 0.00 64 1020.9
20260903134506 73 104 17.0 23.0 0.00 0.00 0.00 63 1021.0
20260903133002 73 152 15.0 21.0 0.00 0.00 0.00 62 1021.0
20260903131605 73 92 11.0 20.0 0.00 0.00 0.00 63 1021.0
20260903130058 73 133 10.0 18.0 0.00 0.00 0.00 64 1021.0
20260903124558 73 90 12.0 18.0 0.00 0.00 0.00 63 1021.1
20260903123055 73 113 10.0 19.0 0.00 0.00 0.00 63 1021.1
20260903121555 73 123 11.0 19.0 0.00 0.00 0.00 62 1021.2
20260903120053 73 90 12.0 18.0 0.00 0.00 0.00 60 1021.1
20260903114602 74 60 10.0 22.0 0.00 0.00 0.00 60 1021.2
20260903113044 72 83 14.0 21.0 0.00 0.00 0.00 60 1021.2
20260903111541 72 90 14.0 27.0 0.00 0.00 0.00 61 1021.3
20260903110039 71 92 12.0 25.0 0.00 0.00 0.00 62 1021.1
20260903104537 70 58 15.0 27.0 0.00 0.00 0.00 61 1021.1
20260903103035 70 43 12.0 21.0 0.00 0.00 0.00 63 1021.1
20260903101530 69 102 9.0 20.0 0.00 0.00 0.00 66 1021.3
20260903100031 68 105 9.0 18.0 0.00 0.00 0.00 68 1021.4
20260903094533 68 90 13.0 20.0 0.00 0.00 0.00 67 1021.7
20260903093039 67 38 12.0 18.0 0.00 0.00 0.00 67 1021.6
20260903091519 67 90 7.0 17.0 0.00 0.00 0.00 68 1021.8
20260903090021 66 94 9.0 15.0 0.00 0.00 0.00 69 1021.8
20260903084527 66 85 11.0 18.0 0.00 0.00 0.00 69 1021.7
20260903083013 65 83 9.0 16.0 0.00 0.00 0.00 69 1021.7
20260903081509 64 94 10.0 19.0 0.00 0.00 0.00 71 1021.5
20260903080006 63 43 9.0 16.0 0.00 0.00 0.00 71 1021.6
20260903074508 62 83 12.0 18.0 0.00 0.00 0.00 72 1021.4
20260903073106 61 98 8.0 15.0 0.00 0.00 0.00 74 1021.2
20260903071558 60 81 7.0 12.0 0.00 0.00 0.00 75 1021.6
20260903070055 60 83 7.0 14.0 0.00 0.00 0.00 74 1021.6
20260903064554 60 83 6.0 12.0 0.00 0.00 0.00 74 1021.2
20260903063052 59 46 8.0 12.0 0.00 0.00 0.00 73 1021.1
20260903061553 59 35 7.0 11.0 0.00 0.00 0.00 73 1021.4
20260903060051 59 44 7.0 11.0 0.00 0.00 0.00 73 1021.2
20260903054550 59 33 8.0 13.0 0.00 0.00 0.00 72 1021.1
20260903053050 59 45 8.0 12.0 0.00 0.00 0.00 72 1021.0
20260903051554 59 28 8.0 12.0 0.00 0.00 0.00 72 1021.1
20260903050048 59 27 9.0 12.0 0.00 0.00 0.00 72 1020.7
20260903044546 60 31 9.0 11.0 0.00 0.00 0.00 71 1021.1
20260903043041 60 19 7.0 11.0 0.00 0.00 0.00 71 1021.1
20260903041540 59 27 7.0 12.0 0.00 0.00 0.00 72 1020.9
20260903040041 59 13 6.0 10.0 0.00 0.00 0.00 72 1021.3
20260903034540 59 19 6.0 10.0 0.00 0.00 0.00 73 1021.2
20260903033040 59 11 5.0 11.0 0.00 0.00 0.00 74 1021.2
20260903031538 59 14 6.0 10.0 0.00 0.00 0.00 75 1021.3
20260903030035 59 15 7.0 11.0 0.00 0.00 0.00 75 1021.3
20260903024542 58 10 6.0 10.0 0.00 0.00 0.00 75 1021.2
20260903023033 59 13 5.0 8.0 0.00 0.00 0.00 75 1021.4
20260903021536 59 19 4.0 6.0 0.00 0.00 0.00 74 1021.4
20260903020026 60 5 5.0 8.0 0.00 0.00 0.00 74 1021.4
20260903014522 59 31 5.0 8.0 0.00 0.00 0.00 75 1021.6
20260903013017 59 16 4.0 7.0 0.00 0.00 0.00 76 1021.4
20260903011514 58 27 4.0 6.0 0.00 0.00 0.00 79 1021.6
20260903010010 57 34 4.0 5.0 0.00 0.00 0.00 81 1021.9
20260903004513 57 45 2.0 4.0 0.00 0.00 0.00 83 1021.6
20260903003006 56 88 2.0 3.0 0.00 0.00 0.00 83 1021.9
20260903001506 55 88 1.0 2.0 0.00 0.00 0.00 83 1022.1
20260903000002 54 87 1.0 3.0 0.00 0.00 0.00 83 1022.0
20260902234502 54 88 1.0 2.0 0.00 0.00 0.00 83 1022.0
20260902233101 54 88 0.0 2.0 0.00 0.00 0.00 82 1022.0
20260902231559 55 88 2.0 3.0 0.00 0.00 0.00 82 1022.1
20260902224557 55 115 0.0 0.0 0.00 0.00 0.00 82 1022.2
20260902223104 55 115 0.0 0.0 0.00 0.00 0.00 82 1022.3
20260902221557 55 115 0.0 0.0 0.00 0.00 0.00 81 1022.2
20260902220051 56 115 0.0 0.0 0.00 0.00 0.00 81 1022.2
20260902214552 57 115 0.0 0.0 0.00 0.00 0.00 79 1022.2
20260902213050 57 115 0.0 0.0 0.00 0.00 0.00 79 1022.4
20260902211556 57 115 0.0 0.0 0.00 0.00 0.00 78 1022.2
20260902210057 58 115 0.0 0.0 0.00 0.00 0.00 77 1022.2
20260902204548 58 115 0.0 0.0 0.00 0.00 0.00 76 1022.0
20260902203049 59 115 0.0 0.0 0.00 0.00 0.00 76 1022.1
20260902201549 59 115 0.0 0.0 0.00 0.00 0.00 75 1022.0
20260902200050 60 115 0.0 0.0 0.00 0.00 0.00 73 1021.9
20260902194546 61 115 0.0 0.0 0.00 0.00 0.00 72 1021.9